Terminal Aerodrome Forecast
Issued by NWS

Home | Current Version | Previous Version | Text Only | Print | Product List | Glossary On
Versions: 1 2 3 4 5 6 7 8 9 10 11 12 13 14 15 16 17 18 19 20 21
000
FTUS41 KGYX 230800 AAB
TAFHIE
TAF AMD
KHIE 230804Z 2308/2406 00000KT 3SM BR BKN025 OVC060
      TEMPO 2308/2310 1SM BR
     FM231400 30008KT P6SM SCT030 BKN040 OVC060
     FM231800 30010G18KT P6SM VCSH BKN040=

USA.gov is the U.S. government's official web portal to all federal, state and local government web resources and services.